Location: G�migny
(47.9646°N, 1.6950°E)
Time: 05:02:32
(UTC+00:00)

Cosmos 1725 Rocket - Pass Details

Date: 23 October 2019
Orbit: 963 x 990 km, 82.9° (Epoch: 16 November)

Event Time Altitude Azimuth Distance (km) Brightness Sun altitude
Rises 18:32:07 0° 355° (N) 3,694 7.1 -17.6°
Reaches altitude 10° 18:34:47 10° 2° (N) 2,746 6.4 -18.1°
Maximum altitude 18:40:46 44° 73° (ENE) 1,336 4.3 -19.1°
Enters shadow 18:43:51 26° 129° (SE) 1,819 5.0 -19.6°
